Flag for U.S.A. Weather past 2 weeks in Miami, Florida, U.S.A.

Now
85 °F

Clear.


Feels Like: 90 °F
Forecast: 80 / 90 °F
Wind: 9 mph from East

Location: Miami International Airport

Current Time: Aug 22, 2014 at 9:39:44 PM

Latest Report: Aug 22, 2014 at 8:53 PM


Visibility: 10 mi

Pressure: 30.03 "Hg

Humidity: 63%

Dew point: 71 °F

Location of MiamiLocation

Historic Weather in Miami — Graph

°F

Miami temperature yesterday

Maximum temperature yesterday: 91 °F (at 1:53 PM)
Minimum temperature yesterday: 81 °F (at 4:53 AM)
Average temperature yesterday: 86 °F

Past Weeks' High & Low Weather Summary

 TemperatureHumidityPressure
High94 °F (Aug 19, 3:53 PM)96% (Aug 7, 10:53 PM)30.12 "Hg (Aug 7, 10:53 PM)
Low75 °F (Aug 7, 10:53 PM)48% (Aug 19, 3:53 PM)29.98 "Hg (Aug 19, 4:53 PM)
Average84 °F72%30.05 "Hg
* Reported Aug 7 7:53 PM — Aug 22 7:53 PM, Miami, Weather by CustomWeather, © 2014

Note: Actual official high and low records may vary slightly from our data, if they occured in-between our weather recording intervals... More about our weather records

Advertising

Miami weather history for previous 24 hours

 ConditionsComfort  
Time TempWeatherWind HumidityBarometerVisibility
7:53 PM
Aug 22
86 °FPassing clouds.13 mph63%30.00 "Hg10 mi
6:53 PM88 °FPassing clouds.10 mph61%29.99 "Hg10 mi
5:53 PM87 °FScattered clouds.9 mph63%29.99 "Hg10 mi
4:53 PM88 °FScattered clouds.12 mph61%30.00 "Hg10 mi
3:53 PM89 °FScattered clouds.3 mph63%30.01 "Hg10 mi
2:53 PM86 °FThunderstorms. Partly sunny.6 mph70%30.05 "Hg10 mi
1:53 PM89 °FPartly sunny.7 mph61%30.05 "Hg10 mi
12:53 PM90 °FPartly sunny.9 mph63%30.06 "Hg10 mi
11:53 AM88 °FBroken clouds.8 mph61%30.08 "Hg10 mi
10:53 AM89 °FScattered clouds.7 mph59%30.08 "Hg10 mi
9:53 AM88 °FScattered clouds.3 mph65%30.08 "Hg10 mi
8:53 AM87 °FScattered clouds.6 mph69%30.07 "Hg10 mi
7:53 AM83 °FPassing clouds.3 mph77%30.06 "Hg10 mi
6:53 AM82 °FPassing clouds.5 mph79%30.05 "Hg10 mi
5:53 AM81 °FPassing clouds.5 mph77%30.03 "Hg10 mi
4:53 AM81 °FPartly cloudy.5 mph77%30.04 "Hg10 mi
3:53 AM82 °FPartly cloudy.5 mph72%30.06 "Hg10 mi
2:53 AM83 °FPartly cloudy.3 mph68%30.07 "Hg10 mi
1:53 AM83 °FPassing clouds.No wind77%30.08 "Hg10 mi
12:53 AM85 °FPassing clouds.5 mph72%30.10 "Hg10 mi
11:53 PM
Aug 21
84 °FPassing clouds.5 mph77%30.11 "Hg10 mi
10:53 PM85 °FPassing clouds.7 mph75%30.11 "Hg10 mi
9:53 PM85 °FPassing clouds.8 mph72%30.10 "Hg10 mi
Weather by CustomWeather, © 2014

See weather overviewHow to use our weather pages